KF5WOE-13 Weather Reports


time (UTC)temp
F
wind
direction
speed
knots
gust
knots
rain 1hr
in
rain 24hr
in
rain mn
in
humidity
%
barometer
mb
20260506104606 140 311 7.8 9.6 0.00 0.00 0.00 1011.8
20260506104103 140 17 5.2 7.0 0.00 0.00 0.00 1011.8
20260506103600 140 337 9.6 11.3 0.00 0.00 0.00 1011.7
20260506103056 140 320 8.7 12.2 0.00 0.00 0.00 1011.9
20260506102555 140 302 6.1 7.0 0.00 0.00 0.00 1011.8
20260506102052 140 348 9.6 11.3 0.00 0.00 0.00 1011.7
20260506101548 140 335 7.8 11.3 0.00 0.00 0.00 1011.6
20260506101046 140 313 7.0 8.7 0.00 0.00 0.00 1011.6
20260506100544 140 316 4.3 6.1 0.00 0.00 0.00 1011.3
20260506100041 140 303 7.0 8.7 0.00 0.00 0.00 1011.1
20260506095540 140 338 7.0 7.8 0.00 0.00 0.00 1011.3
20260506095036 140 12 3.5 6.1 0.00 0.00 0.00 1011.0
20260506094534 140 6 6.1 7.8 0.00 0.00 0.00 1011.1
20260506094032 140 340 6.1 7.8 0.00 0.00 0.00 1010.8
20260506093530 140 339 7.0 7.8 0.00 0.00 0.00 1010.5
20260506093027 140 2 7.8 8.7 0.00 0.00 0.00 1010.6
20260506092525 140 351 6.1 7.0 0.00 0.00 0.00 1010.6
20260506092021 140 356 6.1 7.0 0.00 0.00 0.00 1010.6
20260506091520 140 358 7.8 8.7 0.00 0.00 0.00 1010.7
20260506091016 140 315 5.2 7.0 0.00 0.00 0.00 1010.8
20260506090514 140 327 4.3 4.3 0.00 0.00 0.00 1010.8
20260506090010 140 356 3.5 4.3 0.00 0.00 0.00 1010.4
20260506085507 140 19 4.3 5.2 0.00 0.00 0.00 1010.5
20260506085004 140 9 4.3 5.2 0.00 0.00 0.00 1010.3
20260506084501 140 312 2.6 2.6 0.00 0.00 0.00 1010.7
20260506083957 140 6 6.1 7.8 0.00 0.00 0.00 1010.6
20260506083454 140 347 4.3 6.1 0.00 0.00 0.00 1010.4
20260506082951 140 352 2.6 4.3 0.00 0.00 0.00 1010.4
20260506082448 140 332 4.3 5.2 0.00 0.00 0.00 1010.3
20260506081944 140 327 0.9 5.2 0.00 0.00 0.00 1010.2
20260506081443 140 16 5.2 7.0 0.00 0.00 0.00 1010.2
20260506080939 140 8 7.0 7.8 0.00 0.00 0.00 1010.2
20260506080436 140 12 9.6 11.3 0.00 0.00 0.00 1010.0
20260506073420 140 324 2.6 4.3 0.00 0.00 0.00 1010.0
20260506072918 140 22 7.0 8.7 0.00 0.00 0.00 1010.1
20260506072414 140 322 5.2 5.2 0.00 0.00 0.00 1010.5
20260506071912 140 350 4.3 5.2 0.00 0.00 0.00 1010.1
20260506071410 140 329 4.3 5.2 0.00 0.00 0.00 1010.5
20260506070907 140 328 4.3 5.2 0.00 0.00 0.00 1010.3
20260506070403 140 348 4.3 5.2 0.00 0.00 0.00 1010.1
20260506062341 140 41 4.3 5.2 0.00 0.00 0.00 1009.2
20260506061837 140 17 7.8 9.6 0.00 0.00 0.00 1009.0
20260506061333 140 28 0.0 0.0 0.00 0.00 0.00 1009.1
20260506060832 140 40 3.5 5.2 0.00 0.00 0.00 1009.6
20260506060329 140 5 9.6 12.2 0.00 0.00 0.00 1009.6
20260506051301 140 13 11.3 13.0 0.00 0.00 0.00 1009.6
20260506050759 140 18 11.3 13.0 0.00 0.00 0.00 1009.6
20260506050256 140 12 9.6 12.2 0.00 0.00 0.00 1009.7
20260506044747 140 1 4.3 5.2 0.00 0.00 0.00 1009.5
20260506044244 140 30 6.1 7.8 0.00 0.00 0.00 1009.6
20260506043742 140 10 7.0 7.8 0.00 0.00 0.00 1009.8
20260506043239 140 16 7.0 7.8 0.00 0.00 0.00 1009.6
20260506042737 140 310 6.1 7.8 0.00 0.00 0.00 1009.5
20260506042236 140 318 7.0 9.6 0.00 0.00 0.00 1009.2
20260506041734 140 354 6.1 7.0 0.00 0.00 0.00 1009.6
20260506041230 140 351 7.8 8.7 0.00 0.00 0.00 1009.6
20260506040728 140 316 5.2 6.1 0.00 0.00 0.00 1009.5
20260506040225 140 19 8.7 9.6 0.00 0.00 0.00 1009.5
20260506035721 140 3 8.7 11.3 0.00 0.00 0.00 1009.5
20260506035218 140 358 6.1 7.8 0.00 0.00 0.00 1009.4
20260506034715 140 44 4.3 5.2 0.00 0.00 0.00 1009.6
20260506034213 140 348 10.4 13.0 0.00 0.00 0.00 1009.4
20260506033710 140 342 6.1 8.7 0.00 0.00 0.00 1009.4
20260506033207 140 345 13.0 15.6 0.00 0.00 0.00 1009.4
20260506032703 140 8 11.3 12.2 0.00 0.00 0.00 1009.2
20260506032201 140 23 6.1 7.8 0.00 0.00 0.00 1009.2
20260506031657 140 308 4.3 5.2 0.00 0.00 0.00 1008.9
20260506031155 140 19 11.3 13.0 0.00 0.00 0.00 1008.6
20260506030653 140 35 6.1 8.7 0.00 0.00 0.00 1008.4
20260506030149 140 357 9.6 12.2 0.00 0.00 0.00 1008.7
20260506025646 140 18 7.0 8.7 0.00 0.00 0.00 1008.6
20260506025142 140 4 9.6 9.6 0.00 0.00 0.00 1008.4
20260506024640 140 356 9.6 11.3 0.00 0.00 0.00 1008.2
20260506024136 140 316 5.2 6.1 0.00 0.00 0.00 1008.1
20260506023632 140 6 8.7 11.3 0.00 0.00 0.00 1007.9
20260506023130 140 14 8.7 9.6 0.00 0.00 0.00 1007.7
20260506022627 140 2 8.7 11.3 0.00 0.00 0.00 1007.3
20260506022124 140 342 7.8 9.6 0.00 0.00 0.00 1007.3
20260506021622 140 28 6.1 7.0 0.00 0.00 0.00 1007.6
20260506021119 140 358 7.8 9.6 0.00 0.00 0.00 1007.1
20260506020616 140 16 6.1 8.7 0.00 0.00 0.00 1006.7
20260506020114 140 15 9.6 11.3 0.00 0.00 0.00 1006.6
20260506015611 140 7 6.1 9.6 0.00 0.00 0.00 1006.7
20260506015108 140 343 6.1 7.0 0.00 0.00 0.00 1007.0
20260506014606 140 32 7.8 9.6 0.00 0.00 0.00 1006.9
20260506014101 140 333 0.0 0.0 0.00 0.00 0.00 1006.8
20260506013559 140 16 0.9 4.3 0.00 0.00 0.00 1006.5
20260506013055 140 6 6.1 7.8 0.00 0.00 0.00 1006.2
20260506012552 140 28 5.2 7.0 0.00 0.00 0.00 1006.3
20260506012048 140 3 7.0 7.8 0.00 0.00 0.00 1006.4
20260506011546 140 10 9.6 13.0 0.00 0.00 0.00 1006.0
20260506011037 140 337 5.2 6.1 0.00 0.00 0.00 1006.2
20260506010537 140 358 4.3 5.2 0.00 0.00 0.00 1005.9
20260506010033 140 35 5.2 7.0 0.00 0.00 0.00 1005.6
20260506005530 140 37 0.9 1.7 0.00 0.00 0.00 1005.5
20260506005025 140 356 1.7 2.6 0.00 0.00 0.00 1005.3
20260506004523 140 348 7.8 8.7 0.00 0.00 0.00 1005.1
20260506004020 140 351 9.6 13.0 0.00 0.00 0.00 1005.0
20260506003516 140 346 9.6 9.6 0.00 0.00 0.00 1005.0
20260506003012 140 318 6.1 7.8 0.00 0.00 0.00 1005.3
20260506002508 140 358 5.2 6.1 0.00 0.00 0.00 1005.1
20260506002003 140 347 7.8 8.7 0.00 0.00 0.00 1005.1
20260506001501 140 0 9.6 9.6 0.00 0.00 0.00 1005.0
20260506000958 140 17 10.4 13.9 0.00 0.00 0.00 1004.7
20260506000455 140 10 7.8 9.6 0.00 0.00 0.00 1005.2
20260505235952 140 3 11.3 13.9 0.00 0.00 0.00 1005.1
20260505235451 140 311 4.3 5.2 0.00 0.00 0.00 1004.8
20260505234947 140 354 5.2 7.0 0.00 0.00 0.00 1004.8
20260505234444 140 331 7.0 7.8 0.00 0.00 0.00 1004.9
20260505233941 140 354 4.3 6.1 0.00 0.00 0.00 1004.8
20260505233439 140 353 7.0 11.3 0.00 0.00 0.00 1004.7
20260505232936 140 315 8.7 11.3 0.00 0.00 0.00 1004.8
20260505232434 140 359 14.8 19.1 0.00 0.00 0.00 1004.4
20260505231931 140 359 13.0 18.2 0.00 0.00 0.00 1004.3
20260505231428 140 7 14.8 17.4 0.00 0.00 0.00 1004.3
20260505230926 140 354 9.6 12.2 0.00 0.00 0.00 1004.0
20260505230423 140 356 11.3 13.9 0.00 0.00 0.00 1004.3
20260505225920 140 350 7.8 9.6 0.00 0.00 0.00 1003.9
20260505225417 140 358 14.8 18.2 0.00 0.00 0.00 1003.9
20260505224912 140 24 13.0 14.8 0.00 0.00 0.00 1003.6
20260505224410 140 345 9.6 12.2 0.00 0.00 0.00 1003.8
20260505223907 140 22 11.3 14.8 0.00 0.00 0.00 1004.2
20260505223404 140 8 13.0 18.2 0.00 0.00 0.00 1003.8
20260505222859 140 354 9.6 12.2 0.00 0.00 0.00 1003.4
20260505222356 140 359 9.6 13.0 0.00 0.00 0.00 1003.4
20260505221853 140 4 6.1 8.7 0.00 0.00 0.00 1003.5
20260505221350 140 17 2.6 5.2 0.00 0.00 0.00 1003.4
20260505220847 140 8 5.2 8.7 0.00 0.00 0.00 1003.5
20260505220344 140 23 7.0 7.8 0.00 0.00 0.00 1003.5
20260505215841 140 20 7.0 8.7 0.00 0.00 0.00 1003.3
20260505215339 140 352 6.1 7.0 0.00 0.00 0.00 1003.7
20260505214837 140 17 9.6 12.2 0.00 0.00 0.00 1003.3
20260505214334 140 324 3.5 6.1 0.00 0.00 0.00 1003.4
20260505213831 140 7 1.7 6.1 0.00 0.00 0.00 1003.3
20260505213329 140 0 6.1 7.0 0.00 0.00 0.00 1003.4
20260505212825 140 345 8.7 9.6 0.00 0.00 0.00 1003.3
20260505212322 140 22 7.8 9.6 0.00 0.00 0.00 1003.3
20260505211818 140 317 1.7 5.2 0.00 0.00 0.00 1003.3
20260505211316 140 305 0.0 0.0 0.00 0.00 0.00 1003.3
20260505210812 140 316 2.6 5.2 0.00 0.00 0.00 1003.5
20260505210309 140 258 0.0 0.0 0.00 0.00 0.00 1003.4
20260505205806 140 250 0.0 0.0 0.00 0.00 0.00 1003.7
20260505205305 140 250 0.0 0.0 0.00 0.00 0.00 1003.7
20260505204801 140 298 2.6 4.3 0.00 0.00 0.00 1003.6
20260505204259 140 229 0.0 0.9 0.00 0.00 0.00 1003.7
20260505203755 140 265 0.0 0.0 0.00 0.00 0.00 1003.8
20260505203253 140 268 0.0 0.0 0.00 0.00 0.00 1003.8
20260505202749 140 311 0.0 0.0 0.00 0.00 0.00 1004.2
20260505202245 140 300 0.0 0.0 0.00 0.00 0.00 1003.8
20260505201741 140 318 0.0 0.0 0.00 0.00 0.00 1004.4
20260505201239 140 253 0.0 0.0 0.00 0.00 0.00 1004.0
20260505200738 140 239 2.6 5.2 0.00 0.00 0.00 1004.0
20260505200234 140 217 2.6 6.1 0.00 0.00 0.00 1004.2
20260505195723 140 217 5.2 6.1 0.00 0.00 0.00 1004.4
20260505195222 140 242 0.9 1.7 0.00 0.00 0.00 1004.2
20260505194719 140 223 3.5 6.1 0.00 0.00 0.00 1004.4
20260505194215 140 236 3.5 5.2 0.00 0.00 0.00 1004.3
20260505193710 140 223 0.0 0.0 0.00 0.00 0.00 1004.5
20260505193208 140 240 0.0 0.0 0.00 0.00 0.00 1004.5
20260505192706 140 241 5.2 8.7 0.00 0.00 0.00 1004.6
20260505192204 140 219 4.3 7.0 0.00 0.00 0.00 1004.7
20260505191702 140 231 6.1 7.8 0.00 0.00 0.00 1004.7
20260505191200 140 225 4.3 6.1 0.00 0.00 0.00 1004.7
20260505190656 140 230 6.1 7.0 0.00 0.00 0.00 1004.7
20260505190155 140 228 6.1 7.0 0.00 0.00 0.00 1004.3
20260505185653 140 217 6.1 7.8 0.00 0.00 0.00 1004.7
20260505185149 140 228 7.0 9.6 0.00 0.00 0.00 1004.4
20260505184645 140 239 7.0 9.6 0.00 0.00 0.00 1004.3
20260505184143 140 216 6.1 7.8 0.00 0.00 0.00 1004.6
20260505183639 140 219 7.0 7.8 0.00 0.00 0.00 1004.6
20260505183137 140 246 9.6 12.2 0.00 0.00 0.00 1004.5
20260505182633 140 241 7.8 11.3 0.00 0.00 0.00 1004.7
20260505182130 140 231 7.0 8.7 0.00 0.00 0.00 1004.6
20260505181626 140 218 9.6 12.2 0.00 0.00 0.00 1004.9
20260505181124 140 250 7.0 7.8 0.00 0.00 0.00 1004.7
20260505180620 140 209 2.6 2.6 0.00 0.00 0.00 1004.7
20260505180118 140 231 9.6 11.3 0.00 0.00 0.00 1004.9
20260505175613 140 201 6.1 7.0 0.00 0.00 0.00 1005.2
20260505175110 140 222 4.3 5.2 0.00 0.00 0.00 1005.0
20260505174607 140 217 6.1 7.8 0.00 0.00 0.00 1004.8
20260505174103 140 215 9.6 13.0 0.00 0.00 0.00 1005.1
20260505173559 140 208 9.6 11.3 0.00 0.00 0.00 1005.0
20260505173056 140 232 6.1 7.8 0.00 0.00 0.00 1004.9
20260505172554 140 195 6.1 8.7 0.00 0.00 0.00 1004.9
20260505172051 140 213 7.8 8.7 0.00 0.00 0.00 1005.2
20260505171545 140 220 7.0 7.8 0.00 0.00 0.00 1005.0
20260505171042 140 210 10.4 13.9 0.00 0.00 0.00 1005.0
20260505170539 140 203 7.0 11.3 0.00 0.00 0.00 1005.0
20260505170036 140 216 10.4 13.0 0.00 0.00 0.00 1004.9
20260505165531 140 217 4.3 7.0 0.00 0.00 0.00 1004.8
20260505165027 140 197 5.2 6.1 0.00 0.00 0.00 1005.1
20260505164523 140 199 7.8 8.7 0.00 0.00 0.00 1004.9
20260505164021 140 212 7.8 11.3 0.00 0.00 0.00 1005.0
20260505163520 140 199 9.6 11.3 0.00 0.00 0.00 1005.0
20260505163016 140 227 7.8 11.3 0.00 0.00 0.00 1005.0
20260505162509 140 225 7.8 9.6 0.00 0.00 0.00 1004.9
20260505162006 140 223 6.1 7.0 0.00 0.00 0.00 1005.0
20260505161503 140 190 4.3 5.2 0.00 0.00 0.00 1005.0
20260505161000 140 225 6.1 8.7 0.00 0.00 0.00 1004.9
20260505160458 140 204 8.7 11.3 0.00 0.00 0.00 1004.8
20260505152934 140 199 8.7 9.6 0.00 0.00 0.00 1004.9
20260505152431 140 197 7.0 8.7 0.00 0.00 0.00 1004.5
20260505151926 140 227 7.0 8.7 0.00 0.00 0.00 1004.9
20260505151422 140 189 8.7 11.3 0.00 0.00 0.00 1004.7
20260505150920 140 180 5.2 7.0 0.00 0.00 0.00 1004.4
20260505150416 140 180 3.5 7.0 0.00 0.00 0.00 1004.5
20260505140340 140 186 0.0 0.0 0.00 0.00 0.00 1005.1
20260505130304 140 181 0.0 0.0 0.00 0.00 0.00 1004.6
20260505124754 140 190 0.0 0.0 0.00 0.00 0.00 1004.5
20260505124251 140 191 0.0 0.0 0.00 0.00 0.00 1004.9
20260505123746 140 188 0.0 0.0 0.00 0.00 0.00 1004.6
20260505123243 140 162 0.0 0.0 0.00 0.00 0.00 1004.6
20260505122740 140 174 0.0 0.0 0.00 0.00 0.00 1004.8
20260505122237 140 169 0.0 0.0 0.00 0.00 0.00 1004.4
20260505121734 140 179 0.0 0.0 0.00 0.00 0.00 1004.5
20260505121231 140 173 0.0 0.0 0.00 0.00 0.00 1004.5
20260505120727 140 168 0.0 0.0 0.00 0.00 0.00 1004.3
20260505120223 140 176 0.0 0.0 0.00 0.00 0.00 1004.0
20260505115721 140 139 0.0 0.0 0.00 0.00 0.00 1004.0
20260505115220 140 166 0.0 0.0 0.00 0.00 0.00 1004.0
20260505114717 140 171 0.0 0.0 0.00 0.00 0.00 1004.2
20260505114213 140 148 0.0 0.0 0.00 0.00 0.00 1004.2
20260505113709 140 177 0.0 0.0 0.00 0.00 0.00 1004.3
20260505113206 140 151 0.0 0.0 0.00 0.00 0.00 1003.9
20260505112702 140 141 0.0 0.0 0.00 0.00 0.00 1003.8
20260505112200 140 154 0.0 0.0 0.00 0.00 0.00 1003.9
20260505111700 140 167 0.0 0.0 0.00 0.00 0.00 1003.8
20260505111155 140 207 0.0 0.0 0.00 0.00 0.00 1003.8
20260505110652 140 154 0.0 0.0 0.00 0.00 0.00 1003.8
20260505110149 140 172 0.0 0.0 0.00 0.00 0.00 1003.8